Simultaneous Nadir Overpasses (SNOs) Predictions

Prediction of SNOs between NPP and TERRA Satellite Orbit:

Table of predicted SNOs for the next 14.0 days since TLE Epoch: 7/1/2022
Index Date (NPP) Time (NPP) Lat,Lon (NPP) SZA (NPP ) Date (TERRA) Time (TERRA) Lat,Lon (TERRA) SZA (TERRA ) Distance(km) Time Diff (sec)
1 07/03/2022 10:46:07 -69.67,-164.55 133.32 07/03/2022 10:46:38 -69.69,-164.51 133.31 2.72 31
2 07/03/2022 11:36:51 69.54, 2.94 46.56 07/03/2022 11:36:06 69.53, 2.92 46.54 2.17 45
3 07/06/2022 02:12:23 69.75, 143.77 47.02 07/06/2022 02:13:32 69.76, 143.83 47.01 2.55 69
4 07/06/2022 03:03:04 -69.61, -48.71 133.13 07/06/2022 03:03:03 -69.59, -48.77 133.16 3.38 1
5 07/06/2022 03:53:44 69.28, 119.08 46.53 07/06/2022 03:52:32 69.37, 118.59 46.64 21.87 72
6 07/08/2022 18:29:19 69.70,-100.40 47.26 07/08/2022 18:29:55 69.70,-100.37 47.25 1.26 36
7 07/08/2022 19:20:01 -69.61, 67.06 132.84 07/08/2022 19:19:25 -69.59, 67.12 132.86 3.19 36
8 07/11/2022 09:55:37 -70.03,-152.44 132.07 07/11/2022 09:56:49 -69.92,-151.83 132.21 26.32 72
9 07/11/2022 10:46:16 69.65, 15.43 47.55 07/11/2022 10:46:19 69.64, 15.43 47.53 1.85 3
10 07/11/2022 11:36:57 -69.50,-177.03 132.61 07/11/2022 11:35:49 -69.53,-177.08 132.58 3.30 68
11 07/14/2022 02:12:29 -69.72, -36.21 132.01 07/14/2022 02:13:15 -69.74, -36.19 132.00 2.32 46
12 07/14/2022 03:03:13 69.61, 131.26 47.88 07/14/2022 03:02:42 69.62, 131.29 47.90 1.73 31



Historial Predications of SNOs between NPP and TERRA
